Regional Weather Roundup
Issued by NWS Sioux Falls, SD

Home | Current Version | Previous Version | Graphics & Text | Print | Product List | Glossary Off
Versions: 1 2 3 4 5 6 7 8 9 10 11 12 13 14 15 16 17 18 19 20 21 22 23 24 25 26 27 28 29 30 31 32 33 34 35 36 37 38 39 40 41 42 43 44 45 46 47 48 49 50

000
ASUS43 KFSD 241010
RWRFSD

WEATHER ROUNDUP FOR SE SOUTH DAKOTA/SW MINNESOTA/NW IOWA
NATIONAL WEATHER SERVICE SIOUX FALLS SD
500 AM CDT FRI OCT 24 2014

NOTE: "FAIR" INDICATES FEW OR NO CLOUDS BELOW 12,000 FEET WITH NO
SIGNIFICANT WEATHER AND OR OBSTRUCTIONS TO VISIBILITY.


SDZ038>040-050-052>070-241100-
SOUTHEAST SOUTH DAKOTA

CITY           SKY/WX    TMP DP  RH WIND       PRES   REMARKS
CHAMBERLAIN    MOCLDY    46  36  68 W6        29.86S
HURON          FOG       38  37  97 NW6       29.83S VSB 1/4
MADISON        FAIR      46  46 100 S6        29.84S FOG
MITCHELL       MOCLDY    50  44  80 SW8       29.84S
SIOUX FALLS    MOCLDY    53  50  89 S9        29.84F
WINNER         FAIR      52  34  50 SW3       29.88S
YANKTON        MOCLDY    55  52  88 S3        29.86R
$$

MNZ071-072-080-081-089-090-097-098-241100-
SOUTHWEST MINNESOTA

CITY           SKY/WX    TMP DP  RH WIND       PRES   REMARKS
FAIRMONT       MOCLDY    48  39  71 S10       29.91F
JACKSON        MOCLDY    52  45  76 S8        29.89F
LUVERNE        MOCLDY    46  45  93 S3        29.87F
MARSHALL       MOCLDY    54  45  71 SW6       29.83F
MONTEVIDEO     CLOUDY    46  43  87 SE5       29.85F
PIPESTONE      MOCLDY    50  46  87 S7        29.84F
REDWOOD FALLS  CLOUDY    47  42  83 SE7       29.86S
TRACY          PTCLDY    51  46  80 S13       29.85F
WINDOM         CLOUDY    52  45  76 S5        29.88S
WORTHINGTON    MOCLDY    52  46  82 S10       29.88F
$$

IAZ001>003-012>014-020>022-031-032-NEZ013-014-SDZ071-241100-
NORTHWEST IOWA

CITY           SKY/WX    TMP DP  RH WIND       PRES   REMARKS
CHEROKEE       MOCLDY    55  52  90 S9        29.90F
DENISON        MOCLDY    55  54  94 S6        29.93F
ESTHERVILLE    MOCLDY    46  42  86 S9        29.90F
LE MARS        MOCLDY    55  52  88 SW6       29.88S
ORANGE CITY    MOCLDY    55  50  82 S8        29.87F
SHELDON        MOCLDY    52  48  87 S7        29.87S
SIOUX CITY     MOCLDY    53  50  89 SE8       29.89F
SPENCER        PTCLDY    51  46  83 S12       29.89F
STORM LAKE     FAIR      52  50  93 S12       29.93F
$$

ABBREVIATIONS USED IN REMARKS
   TC - TEMPERATURE IN CELSIUS
  WCI - WIND CHILL INDEX
   HX - HEAT INDEX
  VSB - VISIBILITY




USA.gov is the U.S. government's official web portal to all federal, state and local government web resources and services.